SIRION PATHFINDER-2

Last updated on Sun Jun 21 2026 00:03:50 GMT+0000 (Coordinated Universal Time)

1 43759U 18099B 26170.69233594 .00004059 00000+0 22350-3 0 9994 2 43759 97.4247 219.6903 0007157 293.9955 66.0528 15.14565833413001
UTC large
Height (km)
Speed (km/s)
/
Latitude / Longitude
Inclination (degrees)
Orbital Period (minutes)
Azimuth
Elevation
Range (km)
Doppler Factor

Next 0 passes for location: London (51.5072 / 0.1276)

No passes found over London.
SIRION PATHFINDER-2